User: anonymous   Login
Location: ???? ????
(31.2831°N, 45.5190°E)
Time: 06:19:31
(UTC+00:00)
Language:

Cosmos 2322 Rocket - Orbit

View from above orbital plane
View from above orbital plane
View from above satellite
View from above satellite

Ground track
Ground track

The orbit data is extracted from the following two-line orbital elements,

1 23705U 95058B   21134.74861170 -.00000236  00000-0 -96667-4 0  9990
2 23705  71.0227 273.8441 0014881 280.3258  79.6187 14.15151676319140
Epoch (UTC): 14 May 2021 17:58:00
Eccentricity: 0.0014881
inclination: 71.0227°
perigee height: 831 km
apogee height: 852 km
right ascension of ascending node: 273.8441°
argument of perigee: 280.3258°
revolutions per day: 14.15151676
mean anomaly at epoch: 79.6187°
orbit number at epoch: 31914

The dashed part of the orbit path shows where the satellite is in the earth's shadow,  

DLR